Tracking 28911 objects as of 22-May-2024
HD Live streaming from Space Station
objects crossing your sky now

INS-2TD

Track INS-2TD now!
10-day predictions
INS-2TD is classified as:


NORAD ID: 51658
Int'l Code: 2022-013C
Perigee: 441.8 km
Apogee: 448.9 km
Inclination: 97.5 °
Period: 93.3 minutes
Semi major axis: 6816 km
RCS: Unknown
Launch date: February 14, 2022
Source: India (IND)
Launch site: SRIHARIKOTA (SRI)

Uplink (MHz):
Downlink (MHz): 435.080
Beacon (MHz):
Mode: 1200bps FSK
Call sign: INDUSR
Status: Active

Your satellite tracking list
Your tracking list is empty




NASA's NSSDC Master Catalog

Two Line Element Set (TLE):
1 51658U 22013C   24142.64383165  .00054577  00000-0  12467-2 0  9992
2 51658  97.5203 165.0214 0005199 217.0507 143.0382 15.42664643125907
Source of the keplerian elements: AFSPC